Altoona, PA

4:00 AM EDT on October 14, 2019 (GMT -0400)
Altoona-Blair County

Weather History for KAOO - August, 2019

Change the Weather History Date:

Thursday, August 8, 2019

  Actual Average Record
Temperature  
Mean Temperature 72 °F 70 °F  
Max Temperature 82 °F 81 °F 93 °F (1983)
Min Temperature 62 °F 59 °F 46 °F (1989)
Degree Days  
Heating Degree Days 0 0  
Month to date heating degree days 0 0  
Since 1 June heating degree days 38 68  
Since 1 July heating degree days 0 10  
Cooling Degree Days 7 6  
Month to date cooling degree days 61 48  
Year to date cooling degree days 523 375  
Since 1 June cooling degree days 454 342  
Growing Degree Days 22 (Base 50)    
Moisture  
Dew Point 63 °F    
Average Humidity 72    
Maximum Humidity 93    
Minimum Humidity 51    
Precipitation  
Precipitation 0.24 in 0.10 in 1.05 in (1959)
Month to date precipitation 1.01 0.75  
Year to date precipitation 27.91 21.67  
Sea Level Pressure  
Sea Level Pressure 29.80 in    
Wind  
Wind Speed 7 mph (WSW)    
Max Wind Speed 26 mph    
Max Gust Speed 36 mph    
Visibility 8 miles    
Events Rain , Thunderstorm    
T = Trace of Precipitation, MM = Missing Value Source: NWS Daily Summary

Daily Weather History Graph

Daily Weather History Graph

Search for Another Location

Airport or City:

Astronomy

Aug. 08, 2019 Rise Set
Actual Time 6:17 AM EDT 8:19 PM EDT
Civil Twilight 5:47 AM EDT 8:49 PM EDT
Nautical Twilight 5:11 AM EDT 9:25 PM EDT
Astronomical Twilight 4:31 AM EDT 10:05 PM EDT
Moon 2:53 PM EDT (8/8) 12:38 AM EDT (8/8)
Length of Visible Light 15h 02m
Length of Day
14h 02m
First Quarter, 60% of the Moon is Illuminated
Aug 8
First Quarter
Aug 15
Full
Aug 23
Last Quarter
Aug 30
New
Sep 5
First Quarter

Hourly Weather History & Observations

Time (EDT) Temp. Heat Index Dew Point Humidity Pressure Visibility Wind Dir Wind Speed Gust Speed Precip Events Conditions
12:53 AM 66.0 °F - 62.1 °F 87% 29.83 in 10.0 mi SSW 5.8 mph - N/A   Overcast
1:53 AM 64.9 °F - 62.1 °F 90% 29.82 in 10.0 mi Calm Calm - N/A   Clear
2:53 AM 63.0 °F - 61.0 °F 93% 29.81 in 9.0 mi Calm Calm - N/A   Clear
3:53 AM 63.0 °F - 60.1 °F 90% 29.81 in 7.0 mi Calm Calm - N/A   Clear
4:53 AM 64.9 °F - 61.0 °F 87% 29.80 in 9.0 mi WSW 9.2 mph - N/A   Mostly Cloudy
5:53 AM 63.0 °F - 61.0 °F 93% 29.80 in 6.0 mi SSW 5.8 mph - N/A   Clear
6:53 AM 64.0 °F - 61.0 °F 90% 29.80 in 4.0 mi SSW 4.6 mph - N/A   Clear
7:53 AM 68.0 °F - 64.0 °F 87% 29.81 in 7.0 mi SSW 3.5 mph - N/A   Clear
8:45 AM 71.1 °F - 64.9 °F 81% 29.84 in 7.0 mi SW 9.2 mph - N/A   Mostly Cloudy
8:53 AM 71.1 °F - 64.9 °F 81% 29.81 in 8.0 mi WSW 8.1 mph - N/A   Overcast
9:53 AM 72.0 °F - 64.9 °F 78% 29.81 in 10.0 mi SW 6.9 mph - N/A   Mostly Cloudy
10:13 AM 75.0 °F - 64.0 °F 69% 29.84 in 10.0 mi West 8.1 mph - N/A   Scattered Clouds
10:53 AM 75.9 °F - 64.9 °F 69% 29.80 in 10.0 mi West 8.1 mph - N/A   Clear
11:53 AM 78.1 °F - 61.0 °F 56% 29.81 in 10.0 mi West 13.8 mph 19.6 mph N/A   Partly Cloudy
12:53 PM 80.1 °F 81.1 °F 61.0 °F 52% 29.80 in 10.0 mi West 16.1 mph 20.7 mph N/A   Mostly Cloudy
1:53 PM 79.0 °F - 59.0 °F 50% 29.78 in 10.0 mi WSW 13.8 mph 23.0 mph N/A   Scattered Clouds
2:53 PM 78.1 °F - 60.1 °F 54% 29.78 in 10.0 mi WSW 11.5 mph 19.6 mph N/A   Mostly Cloudy
3:53 PM 78.1 °F - 64.9 °F 64% 29.77 in 10.0 mi SW 3.5 mph - 0.01 in   Partly Cloudy
4:41 PM 75.9 °F - 64.0 °F 67% 29.80 in 10.0 mi West 5.8 mph - 0.00 in Thunderstorm Mostly Cloudy
4:50 PM 68.0 °F - 62.6 °F 83% 29.82 in 0.8 mi WNW 24.2 mph 35.7 mph 0.17 in Rain , Thunderstorm Heavy Thunderstorms and Rain
4:53 PM 66.0 °F - 61.0 °F 84% 29.80 in 0.5 mi NNW 18.4 mph 35.7 mph 0.23 in Rain , Thunderstorm Heavy Thunderstorms and Rain
5:02 PM 69.1 °F - 61.0 °F 75% 29.81 in 4.0 mi Variable 3.5 mph - 0.00 in Rain , Thunderstorm Light Thunderstorms and Rain
5:17 PM 72.0 °F - 61.0 °F 68% 29.80 in 10.0 mi Calm Calm - 0.00 in Thunderstorm Scattered Clouds
5:25 PM 73.0 °F - 63.0 °F 71% 29.80 in 10.0 mi Calm Calm - 0.00 in   Partly Cloudy
5:53 PM 75.9 °F - 66.0 °F 71% 29.77 in 10.0 mi Variable 3.5 mph - 0.00 in   Clear
6:53 PM 78.1 °F - 64.9 °F 64% 29.78 in 10.0 mi West 9.2 mph - N/A   Mostly Cloudy
7:53 PM 73.9 °F - 64.0 °F 71% 29.79 in 10.0 mi West 6.9 mph - N/A   Clear
8:53 PM 69.1 °F - 64.0 °F 84% 29.79 in 10.0 mi Calm Calm - N/A   Clear
9:53 PM 68.0 °F - 63.0 °F 84% 29.82 in 10.0 mi SW 4.6 mph - N/A   Clear
10:53 PM 69.1 °F - 62.1 °F 78% 29.82 in 10.0 mi SW 5.8 mph - N/A   Scattered Clouds
11:53 PM 66.0 °F - 62.1 °F 87% 29.81 in 10.0 mi SSW 6.9 mph - N/A   Partly Cloudy